Regional Weather Roundup
Issued by NWS Cleveland, OH

Home | Current Version | Previous Version | Graphics & Text | Print | Product List | Glossary On
Versions: 1 2 3 4 5 6 7 8 9 10 11 12 13 14 15 16 17 18 19 20 21 22 23 24 25 26 27 28 29 30 31 32 33 34 35 36 37 38 39 40 41 42 43 44 45 46 47 48 49 50
000
ASUS41 KCLE 260302
RWRCLE
OHIO REGIONAL WEATHER ROUNDUP
NATIONAL WEATHER SERVICE CLEVELAND, OH
1100 PM EDT MON MAY 25 2015

NOTE: "FAIR" INDICATES FEW OR NO CLOUDS BELOW 12,000 FEET WITH NO
SIGNIFICANT WEATHER AND/OR OBSTRUCTIONS TO VISIBILITY.

OHZ001>008-015>018-024>027-034-035-043-044-260400-
   NORTHWEST OHIO

CITY           SKY/WX    TMP DP  RH WIND       PRES   REMARKS
DEFIANCE       MOCLDY    73  62  68 S10       30.03R
FINDLAY        MOCLDY    72  62  71 S14       30.06R
TOLEDO EXPRESS CLEAR     73  61  65 S9        30.03R
TOLEDO EXEC    PTCLDY    73  60  63 S16       30.04R
LIMA           PTCLDY    70  62  76 S12       30.08R
$$

OHZ009>014-019>023-028>033-038-089-260400-
   NORTHEAST OHIO

CITY           SKY/WX    TMP DP  RH WIND       PRES   REMARKS
CLE-HOPKINS    PTCLDY    74  60  61 SW10      30.09R
CLE-LAKEFRONT  PTCLDY    76  60  57 S16G23    30.05R
CUY CO. ARPT   MOCLDY    75  61  60 SW15G23   30.08R
LORAIN-ELYRIA  PTCLDY    72  61  68 SW12      30.08R
ASHTABULA      PTCLDY    73  63  70 S8        30.08R
AKRON-CANTON   MOCLDY    75  59  57 SW9       30.11R
WOOSTER        PTCLDY    73  58  59 SW10      30.11R
MANSFIELD      PTCLDY    71  61  70 SW13      30.11R
YOUNGSTOWN     CLOUDY    74  62  66 S9        30.10R
$$

OHZ042-051>053-060>062-070>072-077>081-260400-
  SOUTHWEST OHIO

CITY           SKY/WX    TMP DP  RH WIND       PRES   REMARKS
CINC-COVINGTON MOCLDY    71  64  78 S9        30.11R
CINC-LUNKEN    MOCLDY    70  64  81 S8        30.11R
HAMILTON       MOCLDY    69  65  86 CALM      30.11R
DAYTON         CLOUDY    71  64  78 S12       30.10S
WRIGHT-PAT AFB MOCLDY    70  63  80 S8        30.09S
DAYTON GENERAL MOCLDY    68  63  84 CALM      30.10R
WILMINGTON     MOCLDY    67  63  87 SW6       30.12R
$$

OHZ036-037-039>041-045>050-054>059-063>069-073>076-082>088-260400-
  CENTRAL AND SOUTHEAST OHIO

CITY           SKY/WX    TMP DP  RH WIND       PRES   REMARKS
COLUMBUS       PTCLDY    73  60  63 SW5       30.11R
OSU AIRPORT    PTCLDY    71  60  68 S5        30.11R
BOLTON FIELD   NOT AVBL
RICKENBACK AFB NOT AVBL
NEWARK         CLEAR     72  60  66 CALM      30.11R
MARION         PTCLDY    71  61  70 SW10      30.10R
LANCASTER      CLEAR     67  60  78 CALM      30.12R
ZANESVILLE     CLEAR     71  60  68 S5        30.12R
NEW PHILLY     CLEAR     76  62  62 S3        30.12R
$$



USA.gov is the U.S. government's official web portal to all federal, state and local government web resources and services.